Temp
83 83 83 83 84 84 84 84 85 85 84 86 86 85 85 85 86 86 86 86 86 86 85 85 85 85 85 85 85 85 85 85 86 86 85 85 85 86 87 86 86 86
83 83 83 84 83 83 83 85 84 84 84 84 85 86 85 85 85 86 85 85 85 86 85 86 85 85 85 86 85 85 85 85 85 88 85 84 85 86 87 87 87 87
83 83 83 83 85 84 86 85 85 85 86 87 86 85 86 86 86 85 85 86 86 87 85 85 85 85 85 86 85 85 86 85 85 88 85 85 86 85 86 89 88 87
83 83 85 85 86 85 85 84 84 84 86 85 86 87 87 88 86 85 85 85 85 86 87 87 86 87 86 86 85 86 86 85 87 86 85 86 86 87 87 87 87 88
83 83 84 85 86 85 85 84 86 86 86 86 87 86 85 85 85 86 85 85 85 86 86 86 86 87 86 85 85 85 86 86 86 85 85 85 85 86 87 87 85 86
83 83 83 84 84 84 85 85 85 86 86 87 86 88 87 86 86 87 86 87 88 88 88 88 87 87 87 86 85 85 86 88 88 85 84 84 86 87 89 86 85 85
84 83 83 85 85 85 85 85 85 85 87 88 87 86 87 87 86 86 86 87 88 87 88 87 86 86 86 86 84 84 85 85 86 85 84 85 85 85 87 86 85 84
85 85 85 85 85 85 84 85 85 85 86 86 86 86 86 88 86 88 87 87 88 87 86 87 86 85 87 86 85 84 85 87 86 84 84 84 85 84 85 86 85 84
85 85 84 84 85 86 87 87 87 86 86 85 87 88 87 87 87 88 86 86 86 86 85 86 85 86 87 86 85 85 85 87 87 86 85 85 84 84 86 86 85 85
84 85 86 86 86 87 87 88 89 88 86 86 87 89 87 86 87 87 86 84 85 85 85 85 85 86 86 87 85 86 85 85 85 85 86 86 86 86 87 86 86 85
85 86 86 85 86 88 88 89 89 89 88 87 88 88 89 87 86 86 85 84 86 86 85 85 86 86 86 87 87 87 86 87 86 85 86 86 86 86 86 86 86 86
84 85 85 86 86 88 88 89 89 89 89 88 88 88 88 89 87 87 86 85 85 86 86 86 86 86 85 86 88 88 87 87 87 86 87 86 87 87 87 87 87 86
84 84 85 87 86 87 88 89 89 90 90 89 89 88 88 89 89 87 86 86 85 86 87 86 86 87 85 85 86 87 86 86 88 87 87 87 87 88 89 89 88 88
84 85 86 85 86 85 86 88 89 89 88 88 88 87 88 89 90 89 88 88 87 87 87 87 86 86 85 85 86 87 87 86 87 87 88 88 88 88 89 90 89 89
84 85 85 85 85 84 84 85 87 87 87 87 86 87 90 90 90 91 88 87 87 86 87 87 87 86 86 86 85 85 86 87 86 86 87 87 87 89 89 89 90 91
83 83 84 84 84 83 83 84 86 86 87 87 86 87 87 86 87 88 89 88 86 86 86 87 86 87 82 75 77 85 86 88 87 86 86 87 86 86 89 89 90 91
83 83 83 82 83 83 84 84 84 85 85 84 85 85 85 84 85 86 88 89 88 87 86 87 87 87 75 69 69 71 84 86 86 85 85 86 87 85 85 88 90 90
83 83 82 82 82 82 83 83 84 84 83 83 84 85 83 86 86 85 85 87 89 88 88 87 87 79 69 67 67 67 72 85 87 87 87 86 87 87 87 88 88 89
83 83 82 82 82 82 83 83 82 83 83 84 85 85 86 83 83 85 85 86 87 86 87 89 88 76 68 66 66 65 65 75 88 87 87 88 87 87 87 86 87 87
83 83 82 82 83 83 83 82 82 82 85 86 86 85 83 83 85 84 84 84 85 85 85 87 87 77 67 65 64 64 64 69 85 87 88 88 87 88 88 87 87 87
83 83 82 83 83 83 82 82 82 82 84 85 87 86 84 82 84 84 84 84 86 87 86 87 88 73 65 64 63 62 62 66 83 87 88 87 87 88 86 87 87 88
84 83 83 83 83 83 82 82 82 82 82 84 85 88 87 86 85 86 85 85 86 87 87 86 89 70 65 63 62 61 62 74 79 83 85 86 86 86 87 86 87 87
86 85 83 83 83 83 82 83 82 82 83 84 84 86 87 86 85 86 85 86 86 86 85 85 88 75 63 61 60 60 64 78 79 81 82 84 85 86 86 87 87 87
80 84 84 84 83 83 83 84 85 85 85 85 84 85 86 88 87 87 87 87 87 86 88 86 87 78 62 60 59 59 67 79 81 81 81 82 83 85 86 86 86 81
78 80 84 86 84 85 85 85 84 84 85 86 86 86 86 86 86 87 87 87 89 89 81 84 88 82 63 59 58 58 66 79 81 82 81 81 82 83 84 86 85 82
74 77 80 84 85 85 85 85 86 86 86 86 86 87 86 87 87 86 86 87 89 89 90 88 87 88 79 58 58 56 59 78 82 81 81 81 82 82 83 83 84 85
MSLP
1017.75 1017.95 1018.27 1018.51 1018.67 1018.71 1018.95 1019.31 1019.43 1019.67 1019.83 1019.83 1020.15 1020.27 1020.39 1020.35 1020.31 1020.51 1020.63 1020.79 1020.95 1021.15 1021.23 1021.31 1021.35 1021.51 1021.59 1021.67 1021.79 1021.87 1022.03 1022.15 1022.11 1022.15 1022.39 1022.51 1022.63 1022.67 1022.75 1022.79 1022.83 1022.83
1017.55 1017.75 1017.91 1018.15 1018.47 1018.55 1018.67 1018.79 1019.11 1019.35 1019.63 1019.71 1019.75 1019.87 1019.99 1020.11 1020.23 1020.35 1020.55 1020.75 1020.83 1020.99 1021.03 1021.15 1021.23 1021.31 1021.47 1021.55 1021.67 1021.87 1021.99 1022.03 1022.23 1021.91 1022.31 1022.51 1022.51 1022.51 1022.55 1022.55 1022.63 1022.55
1017.31 1017.59 1017.83 1018.07 1018.19 1018.35 1018.43 1018.55 1018.75 1018.99 1019.23 1019.31 1019.43 1019.59 1019.79 1019.83 1020.11 1020.19 1020.31 1020.47 1020.67 1020.71 1020.91 1020.95 1021.07 1021.15 1021.23 1021.35 1021.51 1021.71 1021.83 1021.99 1022.11 1021.83 1022.07 1022.31 1022.23 1022.47 1022.35 1022.27 1022.39 1022.55
1017.07 1017.19 1017.39 1017.55 1017.71 1017.99 1018.15 1018.43 1018.63 1018.83 1018.91 1019.19 1019.31 1019.31 1019.47 1019.55 1019.79 1020.07 1020.23 1020.35 1020.51 1020.63 1020.63 1020.75 1020.87 1020.91 1021.07 1021.19 1021.35 1021.59 1021.63 1021.79 1021.67 1021.71 1021.95 1021.99 1022.07 1022.11 1022.19 1022.23 1022.27 1022.35
1016.75 1016.99 1017.11 1017.23 1017.35 1017.55 1017.83 1018.23 1018.39 1018.55 1018.71 1018.79 1018.95 1019.11 1019.35 1019.59 1019.79 1019.91 1020.07 1020.23 1020.31 1020.47 1020.51 1020.67 1020.75 1020.83 1020.91 1021.07 1021.23 1021.47 1021.47 1021.63 1021.51 1021.71 1021.95 1022.07 1021.91 1021.99 1021.95 1022.11 1022.35 1022.47
1016.35 1016.55 1016.75 1017.03 1017.15 1017.43 1017.71 1017.91 1018.03 1018.15 1018.35 1018.63 1018.75 1018.79 1019.03 1019.23 1019.51 1019.63 1019.79 1019.99 1019.99 1020.15 1020.23 1020.35 1020.55 1020.63 1020.71 1020.91 1021.07 1021.23 1021.27 1021.35 1021.27 1021.55 1021.87 1021.99 1021.79 1021.63 1021.71 1021.95 1022.19 1022.43
1016.03 1016.31 1016.59 1016.71 1016.99 1017.15 1017.43 1017.55 1017.67 1017.79 1017.95 1018.03 1018.31 1018.63 1018.71 1019.03 1019.27 1019.39 1019.51 1019.63 1019.75 1019.87 1019.99 1020.15 1020.39 1020.51 1020.55 1020.71 1020.95 1021.15 1021.11 1021.19 1021.19 1021.43 1021.71 1021.71 1021.71 1021.79 1021.63 1021.79 1021.99 1022.19
1015.63 1015.83 1016.11 1016.39 1016.71 1016.91 1017.19 1017.27 1017.39 1017.55 1017.63 1017.87 1018.19 1018.27 1018.43 1018.71 1018.95 1019.03 1019.19 1019.39 1019.55 1019.71 1019.83 1019.91 1020.07 1020.27 1020.31 1020.47 1020.79 1020.95 1021.03 1020.91 1021.11 1021.27 1021.51 1021.59 1021.59 1021.79 1021.67 1021.59 1021.71 1021.99
1015.27 1015.59 1015.87 1016.19 1016.47 1016.59 1016.79 1016.87 1017.03 1017.23 1017.35 1017.75 1017.87 1017.95 1018.07 1018.31 1018.55 1018.71 1018.99 1019.15 1019.35 1019.47 1019.63 1019.75 1019.87 1019.99 1020.03 1020.19 1020.39 1020.63 1020.79 1020.71 1020.67 1020.95 1021.19 1021.39 1021.55 1021.55 1021.47 1021.39 1021.59 1021.71
1015.07 1015.19 1015.51 1015.83 1016.19 1016.23 1016.43 1016.47 1016.55 1016.83 1017.03 1017.39 1017.55 1017.59 1017.87 1017.99 1018.11 1018.39 1018.67 1018.95 1019.19 1019.31 1019.39 1019.47 1019.63 1019.71 1019.79 1019.87 1020.07 1020.19 1020.39 1020.51 1020.55 1020.63 1020.71 1020.87 1021.03 1021.07 1021.11 1021.23 1021.35 1021.51
1014.75 1014.95 1015.27 1015.51 1015.67 1015.75 1015.95 1016.07 1016.23 1016.43 1016.67 1016.99 1017.23 1017.43 1017.43 1017.67 1017.95 1018.03 1018.39 1018.67 1018.87 1018.99 1019.07 1019.19 1019.27 1019.35 1019.59 1019.63 1019.63 1019.67 1019.87 1020.03 1020.11 1020.27 1020.35 1020.47 1020.55 1020.63 1020.71 1020.87 1020.99 1021.07
1014.43 1014.59 1014.83 1014.99 1015.19 1015.31 1015.51 1015.67 1015.83 1016.11 1016.31 1016.55 1016.79 1017.15 1017.23 1017.27 1017.55 1017.71 1017.91 1018.23 1018.35 1018.47 1018.59 1018.75 1018.83 1018.99 1019.19 1019.31 1019.35 1019.43 1019.59 1019.67 1019.75 1019.87 1019.95 1020.03 1020.11 1020.15 1020.31 1020.35 1020.55 1020.63
1013.99 1014.15 1014.23 1014.47 1014.71 1014.87 1014.99 1015.27 1015.47 1015.63 1015.91 1016.19 1016.31 1016.67 1016.95 1017.07 1017.11 1017.35 1017.39 1017.59 1017.83 1017.99 1018.19 1018.31 1018.51 1018.59 1018.79 1018.95 1019.07 1019.15 1019.31 1019.47 1019.51 1019.55 1019.63 1019.67 1019.67 1019.67 1019.71 1019.83 1019.99 1020.07
1013.43 1013.55 1013.79 1014.03 1014.15 1014.47 1014.71 1014.87 1015.07 1015.31 1015.55 1015.75 1015.99 1016.35 1016.55 1016.67 1016.79 1016.95 1017.03 1017.15 1017.31 1017.51 1017.67 1017.79 1018.11 1018.31 1018.47 1018.59 1018.71 1018.83 1018.99 1019.15 1019.23 1019.31 1019.35 1019.39 1019.35 1019.35 1019.31 1019.35 1019.47 1019.55
1013.03 1013.27 1013.43 1013.75 1013.99 1014.27 1014.55 1014.75 1014.91 1015.07 1015.31 1015.55 1015.75 1015.95 1016.03 1016.15 1016.31 1016.47 1016.79 1016.99 1016.99 1017.15 1017.31 1017.43 1017.67 1017.87 1017.91 1018.07 1018.39 1018.55 1018.59 1018.79 1018.91 1019.03 1019.11 1019.19 1019.19 1019.07 1018.99 1019.03 1019.03 1019.03
1012.79 1013.07 1013.31 1013.51 1013.87 1014.07 1014.23 1014.39 1014.63 1014.83 1015.03 1015.31 1015.47 1015.59 1015.79 1015.91 1016.07 1016.23 1016.39 1016.63 1016.91 1016.99 1017.07 1017.15 1017.23 1017.15 1017.23 1017.51 1017.71 1017.91 1018.15 1018.27 1018.43 1018.59 1018.71 1018.83 1018.99 1019.07 1018.91 1018.75 1018.67 1018.59
1012.59 1012.91 1013.11 1013.47 1013.51 1013.71 1013.91 1014.19 1014.39 1014.47 1014.71 1014.95 1015.11 1015.31 1015.51 1015.67 1015.83 1016.03 1016.11 1016.11 1016.35 1016.55 1016.79 1016.79 1016.71 1016.55 1016.75 1017.15 1017.43 1017.59 1017.71 1017.91 1018.11 1018.27 1018.31 1018.51 1018.63 1018.79 1018.87 1018.59 1018.39 1018.27
1012.31 1012.59 1012.95 1013.11 1013.31 1013.55 1013.67 1013.79 1014.03 1014.31 1014.51 1014.67 1014.83 1015.07 1015.23 1015.27 1015.55 1015.63 1015.67 1015.75 1015.83 1015.95 1016.11 1016.11 1016.07 1015.95 1016.39 1016.75 1017.07 1017.35 1017.51 1017.51 1017.55 1017.75 1017.87 1018.03 1018.07 1018.19 1018.23 1018.23 1018.19 1018.11
1012.03 1012.35 1012.59 1012.83 1012.95 1013.07 1013.31 1013.55 1013.87 1014.11 1014.27 1014.43 1014.55 1014.47 1014.71 1015.15 1015.19 1015.23 1015.35 1015.31 1015.43 1015.59 1015.55 1015.39 1015.43 1015.39 1015.95 1016.27 1016.59 1016.91 1017.19 1017.35 1017.15 1017.19 1017.39 1017.47 1017.51 1017.63 1017.71 1017.83 1017.87 1017.95
1011.79 1012.07 1012.31 1012.43 1012.55 1012.79 1013.03 1013.31 1013.59 1013.79 1013.67 1013.71 1013.91 1014.19 1014.51 1014.63 1014.67 1014.87 1014.91 1015.07 1015.03 1015.11 1015.07 1014.91 1014.87 1014.83 1015.31 1015.67 1016.07 1016.47 1016.79 1017.15 1016.95 1016.87 1016.91 1016.91 1017.03 1017.11 1017.19 1017.31 1017.43 1017.59
1011.59 1011.75 1011.95 1012.07 1012.23 1012.51 1012.79 1013.03 1013.19 1013.31 1013.43 1013.47 1013.51 1013.75 1014.03 1014.19 1014.23 1014.43 1014.43 1014.47 1014.47 1014.51 1014.59 1014.55 1014.27 1014.27 1014.79 1015.15 1015.55 1015.99 1016.39 1016.91 1016.67 1016.55 1016.47 1016.51 1016.51 1016.55 1016.67 1016.75 1016.87 1016.95
1011.31 1011.47 1011.63 1011.71 1011.95 1012.19 1012.51 1012.75 1012.83 1012.99 1013.15 1013.11 1013.19 1013.19 1013.23 1013.39 1013.59 1013.67 1013.87 1013.95 1013.87 1013.95 1014.11 1014.11 1013.59 1013.79 1014.27 1014.67 1015.03 1015.51 1016.11 1016.59 1016.47 1016.39 1016.27 1016.19 1016.19 1016.15 1016.19 1016.23 1016.31 1016.43
1010.91 1011.15 1011.31 1011.47 1011.59 1011.91 1012.11 1012.27 1012.47 1012.59 1012.67 1012.63 1013.03 1012.99 1013.07 1013.15 1013.15 1013.15 1013.15 1013.27 1013.35 1013.43 1013.63 1013.51 1013.23 1013.27 1013.75 1014.15 1014.63 1015.11 1015.91 1016.03 1016.03 1016.11 1016.07 1016.03 1015.91 1015.79 1015.75 1015.75 1015.75 1015.79
1011.47 1010.91 1010.99 1011.11 1011.31 1011.55 1011.59 1011.63 1011.67 1011.79 1012.03 1012.07 1012.47 1012.63 1012.67 1012.47 1012.47 1012.55 1012.47 1012.51 1012.67 1012.83 1012.79 1013.07 1012.91 1012.79 1013.31 1013.75 1014.27 1014.83 1015.19 1015.35 1015.47 1015.71 1015.75 1015.75 1015.63 1015.43 1015.31 1015.23 1015.15 1015.31
1011.91 1011.27 1010.71 1010.63 1010.83 1010.91 1010.95 1011.15 1011.27 1011.31 1011.27 1011.39 1011.59 1011.79 1011.91 1011.83 1011.87 1011.99 1011.99 1011.95 1011.91 1012.03 1012.15 1012.47 1012.35 1012.31 1012.71 1013.23 1013.79 1014.31 1014.75 1014.75 1014.87 1015.07 1015.35 1015.27 1015.27 1015.23 1014.95 1014.87 1014.79 1014.79
1012.15 1011.67 1010.99 1010.43 1010.27 1010.31 1010.31 1010.43 1010.47 1010.63 1010.75 1010.95 1011.03 1011.11 1011.31 1011.31 1011.35 1011.47 1011.67 1011.55 1011.39 1011.47 1011.55 1011.67 1011.91 1011.87 1012.07 1012.67 1013.19 1013.75 1014.11 1014.15 1014.19 1014.59 1014.75 1014.71 1014.67 1014.75 1014.91 1014.67 1014.47 1014.39
Wind_Speed
10 8 9 8 8 7 7 7 7 7 6 5 5 5 6 5 6 6 7 6 7 7 6 6 5 4 4 4 4 4 3 4 5 4 4 4 4 5 4 3 3 3
11 10 8 8 6 6 6 7 7 7 6 6 5 5 5 5 6 6 7 7 7 7 7 6 5 5 5 4 4 4 4 4 5 4 5 6 5 5 5 5 4 2
12 11 11 11 11 11 11 8 8 7 7 7 7 6 5 6 6 6 6 7 7 8 8 6 6 6 5 5 4 4 4 4 5 5 5 6 5 5 5 4 4 4
13 13 12 13 11 11 10 8 8 7 7 7 7 6 6 5 6 7 7 7 7 7 7 7 7 6 6 6 5 5 5 5 5 4 5 4 5 5 5 4 5 4
14 13 12 11 11 10 9 9 11 9 10 8 7 7 6 6 6 7 7 7 7 7 7 7 7 7 6 6 6 6 6 5 5 4 4 5 5 5 5 4 5 6
12 12 12 11 10 10 10 11 11 11 11 10 9 8 8 8 7 8 8 8 8 8 8 8 8 7 7 7 7 7 6 6 5 5 5 5 6 5 5 4 6 6
14 13 13 12 12 12 11 11 10 10 10 10 8 8 8 8 8 8 8 8 8 8 8 8 8 8 7 7 7 7 7 7 6 6 6 5 5 6 6 5 6 6
15 13 13 12 14 13 13 11 11 10 9 8 10 9 9 9 10 9 8 9 9 9 8 8 8 9 9 8 8 8 8 6 7 7 7 6 6 6 6 5 6 6
14 13 13 14 15 13 14 14 12 11 9 10 11 10 9 10 10 10 9 9 9 8 8 8 8 9 9 9 8 9 9 8 7 8 8 8 7 7 8 7 7 7
14 13 15 15 15 14 15 15 12 11 10 11 11 10 10 10 10 10 10 9 10 9 9 9 9 9 9 9 10 9 9 9 9 8 8 8 9 8 8 7 8 7
16 15 15 16 16 14 16 15 14 12 10 12 12 12 12 10 10 10 10 10 10 11 10 10 10 9 9 10 9 9 10 10 9 9 9 9 9 9 8 8 8 9
15 16 16 17 17 16 16 15 14 13 12 11 12 13 12 11 11 10 10 11 11 11 10 10 9 9 10 10 10 10 9 9 9 9 9 9 10 10 9 9 9 9
16 16 15 16 15 15 13 13 14 14 13 13 12 13 12 12 11 12 10 11 11 11 11 11 10 10 9 10 10 10 10 10 10 10 10 9 10 10 10 10 10 9
15 15 15 14 14 13 13 14 13 13 12 11 11 12 13 13 13 12 11 11 11 11 11 10 10 10 10 10 10 11 10 11 11 10 10 10 10 10 10 10 10 10
13 13 13 13 13 12 13 13 13 12 11 11 11 11 11 12 12 12 11 11 11 11 11 10 10 11 10 10 11 12 11 11 11 11 11 10 10 10 10 10 10 10
12 11 11 12 13 13 13 14 13 13 13 13 13 12 12 11 11 11 12 12 11 11 11 10 10 9 11 15 13 10 11 10 10 10 11 11 10 10 10 11 11 10
11 12 11 12 13 13 12 14 14 13 12 13 13 13 13 11 11 13 13 12 13 12 12 11 10 10 15 16 16 16 12 11 10 10 10 11 11 10 10 11 10 10
12 12 12 13 13 13 13 13 13 13 12 13 12 13 12 12 13 14 13 13 12 13 14 13 12 14 15 16 17 18 15 12 11 10 10 11 11 11 10 10 11 10
11 12 13 13 13 13 12 12 13 13 13 13 14 14 12 13 14 14 14 14 13 14 15 15 14 15 16 17 18 18 18 15 11 11 11 11 11 12 12 10 9 9
11 12 13 13 12 12 12 13 13 14 15 14 13 12 13 13 15 15 13 13 14 14 13 14 14 14 18 19 18 18 18 15 13 13 12 12 12 12 11 12 11 10
11 12 13 12 12 12 12 13 14 13 14 13 13 13 13 14 14 15 14 14 15 15 14 14 14 16 17 19 19 19 18 15 12 13 13 12 12 13 12 12 12 11
10 12 12 12 12 12 13 13 13 13 13 13 12 12 12 12 13 13 14 15 15 16 15 16 15 16 17 18 19 18 17 10 11 13 14 13 12 13 12 12 12 12
12 12 11 12 12 12 13 14 13 13 13 11 12 13 12 13 13 14 13 14 16 15 16 15 15 15 17 18 18 18 13 10 10 11 12 13 13 12 12 13 13 13
12 11 12 11 12 13 13 13 13 12 12 11 13 13 14 14 13 13 14 14 16 16 16 15 16 14 17 18 18 18 16 11 10 11 12 12 12 13 12 12 13 16
11 12 13 13 13 14 13 13 13 12 12 11 13 13 13 12 12 12 13 13 15 16 16 17 16 15 16 18 19 19 16 11 11 11 12 12 12 12 12 11 12 13
11 12 12 13 14 13 13 13 12 12 13 13 13 12 12 13 13 13 14 13 13 15 14 16 17 15 13 19 19 20 21 13 11 12 13 14 13 12 11 12 13 11
Wind_Direction
192 192 198 197 200 199 190 190 198 203 199 200 199 193 196 196 190 187 191 189 193 204 207 217 218 218 216 212 208 210 217 231 235 220 217 219 231 235 232 216 213 221
195 195 194 195 193 192 196 192 192 198 195 196 203 193 196 196 195 196 194 193 195 203 203 203 208 216 220 220 207 212 215 215 230 218 217 217 230 232 238 229 229 207
195 197 198 201 204 202 204 196 195 197 201 202 198 200 197 197 204 202 203 200 198 202 196 198 201 208 217 220 210 216 224 221 234 227 216 222 226 225 243 234 227 213
197 198 202 206 206 200 195 189 192 193 199 194 200 198 199 198 199 202 205 203 203 200 198 196 202 209 211 214 210 219 220 224 236 234 229 227 223 231 230 227 232 221
197 198 202 204 205 198 191 194 200 196 201 201 194 191 192 195 198 205 204 203 206 206 198 196 195 207 204 208 209 222 217 222 214 212 227 234 224 219 230 222 224 229
197 198 199 201 200 195 201 203 202 200 199 198 200 196 199 197 205 210 208 209 209 210 209 203 197 202 204 206 208 221 225 229 214 201 218 230 237 222 230 215 222 228
194 196 200 202 206 204 205 207 204 202 201 205 189 200 197 200 206 211 212 214 219 213 210 201 195 195 199 202 209 216 222 225 222 203 212 225 229 230 227 220 222 229
200 198 199 199 203 204 207 209 208 203 200 191 198 200 195 204 205 210 213 215 218 215 209 204 194 193 198 201 207 213 217 215 217 208 208 219 224 230 225 225 221 225
197 198 195 199 204 207 210 212 210 207 199 200 208 206 198 203 203 208 206 208 215 216 210 209 200 198 200 201 205 209 213 220 218 211 211 215 215 221 227 223 224 226
195 197 197 200 205 209 212 212 212 208 200 205 208 208 200 198 200 201 200 203 211 214 213 212 206 204 202 202 204 208 213 216 216 215 217 218 222 222 222 218 223 229
200 198 200 202 206 209 211 210 211 208 202 206 208 212 209 196 195 196 198 200 210 214 214 212 211 207 207 210 208 210 213 217 218 217 217 218 221 223 220 219 222 229
198 200 203 203 204 208 210 209 209 208 206 204 208 212 210 206 197 196 197 200 207 210 212 212 210 209 209 212 212 211 213 218 221 221 223 220 220 221 221 222 226 226
197 199 201 203 203 206 207 208 209 209 208 207 205 211 213 213 209 203 199 202 202 206 211 212 210 212 211 211 214 214 213 215 223 224 225 225 225 225 223 222 225 228
200 199 201 201 202 200 204 207 208 210 209 209 206 208 213 217 216 210 206 205 206 207 210 209 207 210 211 211 212 213 213 215 219 225 227 227 229 228 229 228 225 227
196 199 199 199 198 195 199 203 206 206 205 205 205 211 214 218 219 219 213 210 210 209 209 207 209 210 210 209 208 210 214 217 217 220 224 228 231 232 231 232 231 229
193 195 198 197 195 199 199 201 204 203 204 205 209 211 213 213 216 217 219 214 210 209 210 211 212 213 206 202 203 207 208 216 216 218 222 226 228 232 234 232 233 235
192 197 198 195 199 202 200 202 204 204 206 207 208 208 209 206 207 213 218 222 219 217 214 215 217 218 206 199 204 208 213 214 214 216 215 220 225 226 232 235 235 233
196 198 198 201 200 203 203 200 202 202 204 203 202 204 203 207 211 215 218 219 220 220 221 220 222 220 205 201 203 206 210 218 220 222 220 220 224 228 230 232 233 234
198 198 199 202 202 201 200 196 198 202 205 206 209 209 208 209 215 215 215 215 219 220 224 224 227 215 204 203 204 204 206 213 228 226 224 224 224 224 228 228 228 230
201 201 204 205 203 200 199 199 201 206 210 211 212 207 207 208 212 216 217 215 218 221 224 227 228 216 201 203 204 204 204 204 225 228 229 230 227 226 226 226 225 226
207 206 207 205 203 199 200 203 205 208 210 211 211 208 206 207 211 215 216 216 217 220 224 228 229 218 200 202 204 204 202 199 221 228 233 233 229 227 225 225 224 225
219 214 211 210 204 203 203 206 207 206 206 207 213 217 217 216 214 217 217 218 220 223 227 232 234 214 202 202 203 204 197 198 215 224 230 234 231 227 224 223 224 226
242 226 221 215 210 207 208 209 208 207 207 205 212 218 220 219 218 217 219 222 222 221 224 230 236 215 200 202 201 199 188 207 211 219 226 230 232 228 225 224 224 223
318 259 228 218 215 214 213 214 213 212 212 205 212 215 221 223 221 221 221 222 223 224 222 227 233 221 197 200 198 191 191 203 210 214 224 226 231 230 230 230 228 221
313 304 255 230 221 220 220 219 214 213 211 207 212 216 223 225 224 227 226 225 226 227 222 226 235 230 198 197 194 190 192 208 210 216 222 225 224 228 228 230 230 219
318 310 291 251 231 221 221 219 215 213 212 210 213 216 220 221 222 224 226 228 227 227 227 225 232 237 205 193 191 191 192 202 212 215 223 222 222 224 225 225 227 229